Location: Ripley
(48.3812°N, 115.4473°W)
Time: 05:39:45
(UTC+00:00)

O/OREOS (USA 219) - Pass Details

Date: 29 June 2022
Orbit: 621 x 646 km, 72.0° (Epoch: 22 May)

Event Time Altitude Azimuth Distance (km) Brightness Sun altitude
Rises 09:47:01 0° 319° (NW) 2,964 ? -13.4°
Reaches altitude 10° 09:50:02 10° 298° (WNW) 2,051 ? -13.1°
Maximum altitude 09:52:52 16° 260° (W) 1,667 ? -12.9°
Enters shadow 09:54:06 15° 241° (WSW) 1,745 ? -12.8°
